• In Hungary
  • List of Countries
  • For 7 days
  • Water Temperature
  • Satellite Maps
  • Weather Map
  • News
  • Weather Widgets
  • user-avatar
    Login

    Hourly Weather Plishkino

    Today, 27 May, Sunday

    Time Temperature Precipitation Wind Pressure Humidity
    00:00 +7°C° 0 mm 2 mps 760 mmHg 77%
    01:00 +7°C° 0 mm 2 mps 760 mmHg 78%
    02:00 +7°C° 0 mm 2 mps 760 mmHg 79%
    03:00 +7°C° 0 mm 1 mps 760 mmHg 78%
    04:00 +8°C° 0 mm 1 mps 760 mmHg 77%
    05:00 +9°C° 0 mm 1 mps 760 mmHg 76%
    06:00 +10°C° 0 mm 1 mps 760 mmHg 76%
    07:00 +10°C° 0 mm 2 mps 760 mmHg 70%
    08:00 +13°C° 0 mm 2 mps 760 mmHg 64%
    09:00 +15°C° 0 mm 2 mps 760 mmHg 57%
    10:00 +16°C° 0 mm 2 mps 760 mmHg 54%
    11:00 +17°C° 0 mm 2 mps 759 mmHg 51%
    12:00 +18°C° 0 mm 2 mps 759 mmHg 48%
    13:00 +18°C° 0 mm 2 mps 759 mmHg 48%
    14:00 +19°C° 0 mm 2 mps 758 mmHg 48%
    15:00 +19°C° 0 mm 3 mps 758 mmHg 49%
    16:00 +19°C° 0 mm 3 mps 757 mmHg 53%
    17:00 +19°C° 0 mm 3 mps 757 mmHg 58%
    18:00 +18°C° 0 mm 3 mps 756 mmHg 63%
    19:00 +17°C° 0 mm 3 mps 756 mmHg 67%
    20:00 +14°C° 0 mm 3 mps 756 mmHg 71%
    21:00 +12°C° 0 mm 3 mps 755 mmHg 75%
    22:00 +11°C° 0 mm 3 mps 755 mmHg 77%
    23:00 +11°C° 0 mm 3 mps 755 mmHg 79%

    Tomorrow, 28 May, Monday

    Time Temperature Precipitation Wind Pressure Humidity
    00:00 +10°C° 0 mm 3 mps 755 mmHg 81%
    01:00 +10°C° 0 mm 3 mps 754 mmHg 82%
    02:00 +10°C° 0 mm 4 mps 754 mmHg 83%
    03:00 +10°C° 0 mm 4 mps 754 mmHg 84%
    04:00 +10°C° 0 mm 4 mps 754 mmHg 83%
    05:00 +11°C° 0 mm 4 mps 753 mmHg 82%
    06:00 +12°C° 0 mm 4 mps 753 mmHg 81%
    07:00 +13°C° 0 mm 4 mps 753 mmHg 80%
    08:00 +14°C° 0 mm 4 mps 753 mmHg 79%
    09:00 +17°C° 0 mm 4 mps 753 mmHg 78%
    10:00 +18°C° 0 mm 4 mps 753 mmHg 71%
    11:00 +20°C° 0 mm 4 mps 753 mmHg 65%
    12:00 +21°C° 0 mm 5 mps 753 mmHg 59%
    13:00 +21°C° 0 mm 5 mps 754 mmHg 56%
    14:00 +21°C° 0 mm 5 mps 754 mmHg 53%
    15:00 +21°C° 0 mm 6 mps 754 mmHg 51%
    16:00 +20°C° 0 mm 5 mps 754 mmHg 55%
    17:00 +19°C° 0 mm 5 mps 754 mmHg 59%
    18:00 +17°C° 0 mm 5 mps 754 mmHg 63%
    19:00 +15°C° 0 mm 5 mps 755 mmHg 65%
    20:00 +13°C° 0 mm 4 mps 756 mmHg 67%
    21:00 +11°C° 0 mm 4 mps 756 mmHg 69%
    22:00 +10°C° 0 mm 4 mps 757 mmHg 71%
    23:00 +9°C° 0 mm 3 mps 757 mmHg 72%

    Day after tomorrow, 29 May, Tuesday

    Time Temperature Precipitation Wind Pressure Humidity
    00:00 +8°C° 0 mm 3 mps 758 mmHg 73%
    01:00 +7°C° 0 mm 3 mps 758 mmHg 74%
    02:00 +7°C° 0 mm 2 mps 758 mmHg 74%
    03:00 +6°C° 0 mm 2 mps 758 mmHg 74%
    04:00 +7°C° 0 mm 2 mps 758 mmHg 73%
    05:00 +8°C° 0 mm 2 mps 759 mmHg 72%
    06:00 +8°C° 0 mm 2 mps 759 mmHg 72%
    07:00 +10°C° 0 mm 2 mps 759 mmHg 65%
    08:00 +13°C° 0 mm 2 mps 759 mmHg 58%
    09:00 +14°C° 0 mm 2 mps 759 mmHg 51%
    10:00 +15°C° 0 mm 2 mps 759 mmHg 49%
    11:00 +16°C° 0 mm 2 mps 758 mmHg 47%
    12:00 +17°C° 0 mm 3 mps 758 mmHg 45%
    13:00 +18°C° 0 mm 3 mps 758 mmHg 46%
    14:00 +19°C° 0 mm 3 mps 757 mmHg 47%
    15:00 +19°C° 0 mm 3 mps 757 mmHg 48%
    16:00 +19°C° 0 mm 3 mps 756 mmHg 53%
    17:00 +19°C° 0 mm 3 mps 756 mmHg 57%
    18:00 +18°C° 0 mm 2 mps 755 mmHg 62%
    19:00 +17°C° 0 mm 2 mps 755 mmHg 66%
    20:00 +15°C° 0 mm 2 mps 755 mmHg 70%
    21:00 +13°C° 0 mm 2 mps 754 mmHg 74%
    22:00 +12°C° 0 mm 2 mps 754 mmHg 75%
    23:00 +12°C° 0 mm 2 mps 754 mmHg 77%

    30 May, Wednesday

    Time Temperature Precipitation Wind Pressure Humidity
    00:00 +10°C° 0 mm 2 mps 754 mmHg 78%
    01:00 +10°C° 0 mm 3 mps 754 mmHg 79%
    02:00 +9°C° 0 mm 3 mps 753 mmHg 80%
    03:00 +9°C° 0 mm 3 mps 753 mmHg 82%
    04:00 +10°C° 0 mm 3 mps 753 mmHg 80%
    05:00 +10°C° 0 mm 3 mps 752 mmHg 79%
    06:00 +11°C° 0 mm 4 mps 752 mmHg 78%
    07:00 +13°C° 0 mm 4 mps 752 mmHg 73%
    08:00 +15°C° 0 mm 5 mps 751 mmHg 69%
    09:00 +17°C° 0 mm 5 mps 751 mmHg 65%
    10:00 +19°C° 0 mm 5 mps 750 mmHg 63%
    11:00 +20°C° 0 mm 6 mps 750 mmHg 60%
    12:00 +21°C° 0 mm 6 mps 750 mmHg 58%
    13:00 +22°C° 0 mm 6 mps 749 mmHg 58%
    14:00 +22°C° 0 mm 6 mps 749 mmHg 59%
    15:00 +22°C° 0 mm 6 mps 748 mmHg 59%
    16:00 +22°C° 0 mm 6 mps 748 mmHg 63%
    17:00 +22°C° 0 mm 5 mps 747 mmHg 67%
    18:00 +21°C° 0 mm 5 mps 747 mmHg 71%
    19:00 +20°C° 0 mm 4 mps 747 mmHg 77%
    20:00 +18°C° 0 mm 4 mps 747 mmHg 82%
    21:00 +15°C° 0 mm 4 mps 747 mmHg 88%
    22:00 +15°C° 0 mm 4 mps 746 mmHg 90%
    23:00 +14°C° 0 mm 4 mps 746 mmHg 91%

    31 May, Thursday

    Time Temperature Precipitation Wind Pressure Humidity
    00:00 +14°C° 0 mm 4 mps 745 mmHg 92%
    01:00 +14°C° 0 mm 4 mps 745 mmHg 92%
    02:00 +13°C° 0 mm 4 mps 745 mmHg 93%
    03:00 +13°C° 0 mm 4 mps 745 mmHg 93%
    04:00 +14°C° 0 mm 4 mps 744 mmHg 91%
    05:00 +14°C° 0 mm 5 mps 744 mmHg 89%
    06:00 +15°C° 0 mm 5 mps 744 mmHg 87%
    07:00 +16°C° 0.1 mm 5 mps 744 mmHg 84%
    08:00 +19°C° 0.1 mm 5 mps 743 mmHg 80%
    09:00 +21°C° 0.1 mm 6 mps 743 mmHg 76%
    10:00 +22°C° 0.4 mm 6 mps 743 mmHg 74%
    11:00 +22°C° 0.4 mm 6 mps 743 mmHg 72%
    12:00 +23°C° 0.4 mm 6 mps 742 mmHg 70%
    13:00 +23°C° 0.8 mm 5 mps 742 mmHg 70%
    14:00 +23°C° 0.8 mm 5 mps 742 mmHg 70%
    15:00 +23°C° 0.8 mm 4 mps 742 mmHg 71%
    16:00 +23°C° 0.5 mm 4 mps 742 mmHg 73%
    17:00 +22°C° 0.5 mm 3 mps 742 mmHg 76%
    18:00 +23°C° 0.5 mm 2 mps 742 mmHg 78%
    19:00 +20°C° 0.4 mm 3 mps 742 mmHg 83%
    20:00 +18°C° 0.4 mm 3 mps 742 mmHg 88%
    21:00 +17°C° 0.4 mm 3 mps 743 mmHg 93%
    22:00 +15°C° 0.1 mm 4 mps 743 mmHg 93%
    23:00 +14°C° 0.1 mm 4 mps 743 mmHg 94%

    1 June, Friday

    Time Temperature Precipitation Wind Pressure Humidity
    00:00 +14°C° 0.1 mm 4 mps 743 mmHg 95%
    01:00 +13°C° 0.1 mm 5 mps 743 mmHg 94%
    02:00 +13°C° 0.1 mm 5 mps 743 mmHg 94%
    03:00 +13°C° 0.1 mm 5 mps 743 mmHg 94%
    04:00 +13°C° 0 mm 5 mps 743 mmHg 93%
    05:00 +13°C° 0 mm 5 mps 743 mmHg 93%
    06:00 +13°C° 0 mm 5 mps 743 mmHg 92%
    07:00 +13°C° 0.1 mm 5 mps 743 mmHg 91%
    08:00 +13°C° 0.1 mm 5 mps 744 mmHg 91%
    09:00 +13°C° 0.1 mm 5 mps 744 mmHg 90%
    10:00 +14°C° 0 mm 6 mps 744 mmHg 88%
    11:00 +15°C° 0 mm 6 mps 744 mmHg 87%
    12:00 +15°C° 0 mm 6 mps 744 mmHg 85%
    13:00 +15°C° 0 mm 6 mps 744 mmHg 84%
    14:00 +16°C° 0 mm 7 mps 744 mmHg 82%
    15:00 +16°C° 0 mm 7 mps 744 mmHg 81%
    16:00 +16°C° 0.2 mm 7 mps 744 mmHg 80%
    17:00 +16°C° 0.2 mm 7 mps 744 mmHg 80%
    18:00 +15°C° 0.2 mm 7 mps 744 mmHg 80%
    19:00 +14°C° 0.5 mm 7 mps 744 mmHg 81%
    20:00 +11°C° 0.5 mm 7 mps 744 mmHg 83%
    21:00 +10°C° 0.5 mm 7 mps 744 mmHg 85%
    22:00 +9°C° 0.3 mm 7 mps 744 mmHg 85%
    23:00 +9°C° 0.3 mm 7 mps 744 mmHg 86%
    Show more